When you browse on this site, cookies collect data to enhance your experience and personalize the content and advertising you see.
Visit our Privacy Policy to learn more. By continuing to use the site, you agree to this use of cookies and data.
  • In United Kingdom
  • List of Countries
  • For 7 days
  • Water Temperature
  • Satellite Maps
  • Weather Map
  • Weather Widgets
  • user-avatar
    Login

    Hourly Weather Middletown

    Today, 18 June, Tuesday

    Time Temperature Precipitation Wind Pressure Humidity
    00:00 +21°C° 0 mm 1 mps 741 mmHg 93%
    01:00 +21°C° 0.2 mm 1 mps 741 mmHg 93%
    02:00 +21°C° 0.2 mm 1 mps 741 mmHg 94%
    03:00 +21°C° 0.2 mm 1 mps 741 mmHg 95%
    04:00 +21°C° 0.7 mm 1 mps 741 mmHg 94%
    05:00 +21°C° 0.7 mm 1 mps 741 mmHg 94%
    06:00 +22°C° 0.7 mm 1 mps 741 mmHg 94%
    07:00 +22°C° 0.9 mm 1 mps 741 mmHg 93%
    08:00 +23°C° 0.9 mm 1 mps 741 mmHg 91%
    09:00 +23°C° 0.9 mm 2 mps 741 mmHg 90%
    10:00 +24°C° 0.7 mm 2 mps 741 mmHg 88%
    11:00 +25°C° 0.7 mm 3 mps 740 mmHg 85%
    12:00 +26°C° 0.7 mm 3 mps 740 mmHg 83%
    13:00 +27°C° 0.8 mm 3 mps 740 mmHg 81%
    14:00 +27°C° 0.8 mm 3 mps 739 mmHg 80%
    15:00 +27°C° 0.8 mm 2 mps 739 mmHg 79%
    16:00 +27°C° 0.7 mm 2 mps 738 mmHg 82%
    17:00 +26°C° 0.7 mm 2 mps 738 mmHg 85%
    18:00 +26°C° 0.7 mm 1 mps 738 mmHg 88%
    19:00 +25°C° 0.4 mm 1 mps 738 mmHg 90%
    20:00 +24°C° 0.4 mm 1 mps 738 mmHg 91%
    21:00 +23°C° 0.4 mm 1 mps 738 mmHg 93%
    22:00 +22°C° 0.3 mm 1 mps 738 mmHg 94%
    23:00 +22°C° 0.3 mm 1 mps 738 mmHg 94%

    Tomorrow, 19 June, Wednesday

    Time Temperature Precipitation Wind Pressure Humidity
    00:00 +22°C° 0.3 mm 1 mps 737 mmHg 95%
    01:00 +22°C° 0 mm 1 mps 737 mmHg 95%
    02:00 +21°C° 0 mm 1 mps 737 mmHg 96%
    03:00 +21°C° 0 mm 1 mps 736 mmHg 97%
    04:00 +21°C° 0 mm 1 mps 737 mmHg 96%
    05:00 +22°C° 0 mm 1 mps 737 mmHg 95%
    06:00 +23°C° 0 mm 1 mps 737 mmHg 95%
    07:00 +23°C° 0 mm 1 mps 737 mmHg 92%
    08:00 +24°C° 0 mm 1 mps 737 mmHg 89%
    09:00 +25°C° 0 mm 1 mps 737 mmHg 86%
    10:00 +26°C° 0.3 mm 1 mps 736 mmHg 81%
    11:00 +27°C° 0.3 mm 1 mps 736 mmHg 76%
    12:00 +29°C° 0.3 mm 2 mps 736 mmHg 72%
    13:00 +29°C° 0.8 mm 2 mps 735 mmHg 73%
    14:00 +29°C° 0.8 mm 2 mps 735 mmHg 73%
    15:00 +29°C° 0.8 mm 2 mps 734 mmHg 74%
    16:00 +28°C° 1.5 mm 2 mps 734 mmHg 78%
    17:00 +27°C° 1.5 mm 2 mps 734 mmHg 82%
    18:00 +26°C° 1.5 mm 1 mps 734 mmHg 85%
    19:00 +25°C° 1.9 mm 1 mps 734 mmHg 88%
    20:00 +24°C° 1.9 mm 1 mps 734 mmHg 90%
    21:00 +23°C° 1.9 mm 1 mps 734 mmHg 92%
    22:00 +22°C° 0.4 mm 1 mps 734 mmHg 93%
    23:00 +22°C° 0.4 mm 1 mps 734 mmHg 93%

    Day after tomorrow, 20 June, Thursday

    Time Temperature Precipitation Wind Pressure Humidity
    00:00 +22°C° 0.4 mm 1 mps 733 mmHg 93%
    01:00 +21°C° 0.1 mm 1 mps 733 mmHg 93%
    02:00 +20°C° 0.1 mm 2 mps 733 mmHg 94%
    03:00 +20°C° 0.1 mm 3 mps 732 mmHg 95%
    04:00 +20°C° 0.5 mm 3 mps 732 mmHg 94%
    05:00 +21°C° 0.5 mm 3 mps 731 mmHg 93%
    06:00 +21°C° 0.5 mm 3 mps 731 mmHg 93%
    07:00 +21°C° 0.3 mm 3 mps 731 mmHg 93%
    08:00 +21°C° 0.3 mm 3 mps 730 mmHg 93%
    09:00 +22°C° 0.3 mm 3 mps 730 mmHg 93%
    10:00 +22°C° 1.3 mm 5 mps 730 mmHg 90%
    11:00 +23°C° 1.3 mm 6 mps 730 mmHg 88%
    12:00 +24°C° 1.3 mm 8 mps 730 mmHg 85%
    13:00 +22°C° 0.6 mm 9 mps 730 mmHg 85%
    14:00 +21°C° 0.6 mm 11 mps 731 mmHg 85%
    15:00 +19°C° 0.6 mm 13 mps 731 mmHg 85%
    16:00 +19°C° 0.4 mm 11 mps 732 mmHg 86%
    17:00 +18°C° 0.4 mm 9 mps 734 mmHg 88%
    18:00 +18°C° 0.4 mm 7 mps 735 mmHg 89%
    19:00 +19°C° 0 mm 6 mps 736 mmHg 91%
    20:00 +18°C° 0 mm 4 mps 737 mmHg 92%
    21:00 +17°C° 0 mm 3 mps 738 mmHg 94%
    22:00 +17°C° 0 mm 3 mps 738 mmHg 94%
    23:00 +17°C° 0 mm 3 mps 739 mmHg 95%

    21 June, Friday

    Time Temperature Precipitation Wind Pressure Humidity
    00:00 +16°C° 0 mm 3 mps 739 mmHg 95%
    01:00 +16°C° 0 mm 2 mps 740 mmHg 94%
    02:00 +17°C° 0 mm 2 mps 740 mmHg 93%
    03:00 +18°C° 0 mm 1 mps 740 mmHg 92%
    04:00 +18°C° 0 mm 1 mps 741 mmHg 92%
    05:00 +18°C° 0 mm 1 mps 741 mmHg 91%
    06:00 +18°C° 0 mm 1 mps 742 mmHg 90%
    07:00 +20°C° 0 mm 1 mps 742 mmHg 85%
    08:00 +22°C° 0 mm 1 mps 743 mmHg 79%
    09:00 +23°C° 0 mm 1 mps 743 mmHg 73%
    10:00 +24°C° 0 mm 1 mps 743 mmHg 69%
    11:00 +26°C° 0 mm 1 mps 743 mmHg 65%
    12:00 +27°C° 0 mm 1 mps 743 mmHg 61%
    13:00 +27°C° 0 mm 1 mps 743 mmHg 61%
    14:00 +27°C° 0 mm 1 mps 743 mmHg 60%
    15:00 +28°C° 0 mm 1 mps 742 mmHg 59%
    16:00 +27°C° 0.1 mm 1 mps 742 mmHg 65%
    17:00 +26°C° 0.1 mm 2 mps 743 mmHg 70%
    18:00 +25°C° 0.1 mm 2 mps 743 mmHg 75%
    19:00 +24°C° 0.2 mm 2 mps 743 mmHg 79%
    20:00 +23°C° 0.2 mm 2 mps 743 mmHg 83%
    21:00 +20°C° 0.2 mm 3 mps 743 mmHg 86%
    22:00 +20°C° 0.2 mm 3 mps 743 mmHg 86%
    23:00 +19°C° 0.2 mm 4 mps 743 mmHg 86%

    22 June, Saturday

    Time Temperature Precipitation Wind Pressure Humidity
    00:00 +19°C° 0.2 mm 4 mps 743 mmHg 86%
    01:00 +18°C° 0.8 mm 4 mps 743 mmHg 87%
    02:00 +18°C° 0.8 mm 3 mps 743 mmHg 89%
    03:00 +18°C° 0.8 mm 3 mps 743 mmHg 90%
    04:00 +18°C° 3.1 mm 3 mps 743 mmHg 92%
    05:00 +17°C° 3.1 mm 3 mps 743 mmHg 94%
    06:00 +17°C° 3.1 mm 3 mps 744 mmHg 95%
    07:00 +18°C° 1.9 mm 3 mps 744 mmHg 94%
    08:00 +19°C° 1.9 mm 3 mps 744 mmHg 92%
    09:00 +20°C° 1.9 mm 4 mps 744 mmHg 90%
    10:00 +22°C° 0 mm 4 mps 743 mmHg 86%
    11:00 +23°C° 0 mm 4 mps 743 mmHg 82%
    12:00 +26°C° 0 mm 4 mps 743 mmHg 79%
    13:00 +27°C° 0 mm 4 mps 743 mmHg 76%
    14:00 +28°C° 0 mm 3 mps 743 mmHg 74%
    15:00 +28°C° 0 mm 2 mps 743 mmHg 72%
    16:00 +28°C° 0 mm 2 mps 742 mmHg 77%
    17:00 +27°C° 0 mm 3 mps 742 mmHg 81%
    18:00 +26°C° 0 mm 3 mps 742 mmHg 85%
    19:00 +25°C° 0.1 mm 3 mps 742 mmHg 88%
    20:00 +24°C° 0.1 mm 2 mps 742 mmHg 91%
    21:00 +23°C° 0.1 mm 2 mps 742 mmHg 93%
    22:00 +21°C° 0.6 mm 2 mps 742 mmHg 94%
    23:00 +21°C° 0.6 mm 3 mps 742 mmHg 94%

    23 June, Sunday

    Time Temperature Precipitation Wind Pressure Humidity
    00:00 +20°C° 0.6 mm 3 mps 741 mmHg 95%
    01:00 +20°C° 0.7 mm 3 mps 741 mmHg 95%
    02:00 +20°C° 0.7 mm 3 mps 741 mmHg 96%
    03:00 +20°C° 0.7 mm 2 mps 741 mmHg 96%
    04:00 +20°C° 1.1 mm 3 mps 741 mmHg 96%
    05:00 +21°C° 1.1 mm 3 mps 741 mmHg 96%
    06:00 +21°C° 1.1 mm 3 mps 741 mmHg 96%
    07:00 +22°C° 0.1 mm 3 mps 741 mmHg 94%
    08:00 +24°C° 0.1 mm 3 mps 741 mmHg 92%
    09:00 +25°C° 0.1 mm 3 mps 741 mmHg 90%
    10:00 +27°C° 0 mm 4 mps 741 mmHg 81%
    11:00 +29°C° 0 mm 4 mps 741 mmHg 73%
    12:00 +32°C° 0 mm 5 mps 740 mmHg 64%
    13:00 +32°C° 0.5 mm 5 mps 740 mmHg 67%
    14:00 +32°C° 0.5 mm 5 mps 739 mmHg 70%
    15:00 +30°C° 0.5 mm 4 mps 739 mmHg 72%
    16:00 +30°C° 0.3 mm 4 mps 739 mmHg 75%
    17:00 +29°C° 0.3 mm 4 mps 739 mmHg 78%
    18:00 +28°C° 0.3 mm 4 mps 739 mmHg 81%
    19:00 +27°C° 0.8 mm 4 mps 739 mmHg 85%
    20:00 +26°C° 0.8 mm 3 mps 739 mmHg 88%
    21:00 +25°C° 0.8 mm 3 mps 739 mmHg 92%
    22:00 +25°C° 0 mm 3 mps 739 mmHg 92%
    23:00 +24°C° 0 mm 2 mps 739 mmHg 93%
    Show more